DW9497 Weather Reports


time (UTC)temp
C
wind
direction
speed
KPH
gust
KPH
rain 1hr
cm
rain 24hr
cm
rain mn
cm
humidity
%
barometer
mb
20260508090109 11 117 0.0 3.2 0.00 0.00 0.00 83 1016.4
20260508084547 10 122 0.0 1.6 0.00 0.00 0.00 85 1016.3
20260508083040 10 120 0.0 3.2 0.00 0.00 0.00 85 1016.2
20260508081551 10 121 0.0 1.6 0.00 0.00 0.00 86 1016.1
20260508080042 9 121 0.0 1.6 0.00 0.00 0.00 85 1016.0
20260508074534 9 121 0.0 1.6 0.00 0.00 0.00 84 1016.0
20260508073042 9 122 0.0 3.2 0.00 0.00 0.00 84 1016.0
20260508071533 9 122 0.0 3.2 0.00 0.00 0.00 85 1015.9
20260508070029 9 123 0.0 0.0 0.00 0.00 0.00 86 1015.7
20260508064530 8 121 0.0 1.6 0.00 0.00 0.00 86 1015.7
20260508063027 8 120 0.0 3.2 0.00 0.00 0.00 87 1015.5
20260508061531 8 122 0.0 1.6 0.00 0.00 0.00 88 1015.3
20260508060021 7 122 0.0 1.6 0.00 0.00 0.00 88 1015.2
20260508054519 7 124 0.0 1.6 0.00 0.00 0.00 89 1015.2
20260508053021 7 124 0.0 0.0 0.00 0.00 0.00 89 1015.1
20260508051517 7 125 0.0 0.0 0.00 0.00 0.00 89 1014.9
20260508050020 7 124 0.0 0.0 0.00 0.00 0.00 89 1014.9
20260508044516 7 121 0.0 1.6 0.00 0.00 0.00 89 1014.9
20260508043017 7 121 0.0 1.6 0.00 0.00 0.00 89 1014.8
20260508041519 6 123 0.0 1.6 0.00 0.00 0.00 90 1014.8
20260508040014 6 122 0.0 1.6 0.00 0.00 0.00 90 1014.9
20260508034516 6 124 0.0 0.0 0.00 0.00 0.00 89 1014.8
20260508033012 6 124 0.0 0.0 0.00 0.00 0.00 89 1014.9
20260508031511 6 124 0.0 0.0 0.00 0.00 0.00 89 1014.8
20260508030008 6 123 0.0 1.6 0.00 0.00 0.00 89 1014.7
20260508024516 6 122 0.0 0.0 0.00 0.00 0.00 88 1014.8
20260508023004 6 122 0.0 1.6 0.00 0.00 0.00 88 1014.8
20260508021506 7 123 0.0 1.6 0.00 0.00 0.00 88 1014.7
20260508020004 7 122 0.0 0.0 0.00 0.00 0.00 87 1014.8
20260508014600 7 122 0.0 0.0 0.00 0.00 0.00 87 1014.7
20260508013059 7 120 0.0 0.0 0.00 0.00 0.00 86 1014.5
20260508011605 7 120 0.0 0.0 0.00 0.00 0.00 87 1014.6
20260508010057 7 122 0.0 0.0 0.00 0.00 0.00 87 1014.7
20260508004600 7 121 0.0 1.6 0.00 0.00 0.00 87 1014.6
20260508003055 7 122 0.0 1.6 0.00 0.00 0.00 86 1014.7
20260508001553 7 120 0.0 0.0 0.00 0.00 0.00 85 1014.7
20260508000052 8 120 0.0 0.0 0.00 0.00 0.00 85 1014.7
20260507234548 8 121 0.0 0.0 0.00 0.00 0.00 84 1014.7
20260507233046 8 120 0.0 1.6 0.00 0.00 0.00 84 1014.7
20260507231545 8 121 0.0 1.6 0.00 0.00 0.00 84 1014.8
20260507230100 8 120 0.0 0.0 0.00 0.00 0.00 85 1014.8
20260507224542 8 120 0.0 1.6 0.00 0.00 0.00 85 1014.7
20260507223042 8 120 0.0 0.0 0.00 0.00 0.00 86 1014.7
20260507221543 8 121 0.0 0.0 0.00 0.00 0.00 86 1014.6
20260507220042 8 120 0.0 1.6 0.00 0.00 0.00 85 1014.6
20260507214540 8 120 0.0 0.0 0.00 0.00 0.00 84 1014.5
20260507213039 8 119 0.0 0.0 0.00 0.00 0.00 84 1014.5
20260507211542 8 123 0.0 0.0 0.00 0.00 0.00 82 1014.5
20260507210040 10 119 0.0 0.0 0.00 0.00 0.00 79 1014.4
20260507204536 10 118 0.0 1.6 0.00 0.00 0.00 78 1014.2
20260507203105 10 121 0.0 1.6 0.00 0.00 0.00 77 1014.1
20260507201536 11 107 0.0 1.6 0.00 0.00 0.00 76 1014.0
20260507200036 11 120 0.0 3.2 0.00 0.00 0.00 76 1013.9
20260507194536 11 129 0.0 3.2 0.00 0.00 0.00 77 1013.7
20260507193038 11 98 0.0 3.2 0.00 0.00 0.00 77 1013.6
20260507191537 11 124 0.0 6.4 0.00 0.00 0.00 78 1013.7
20260507190033 11 101 0.0 3.2 0.00 0.00 0.00 81 1013.6
20260507184531 11 293 0.0 0.0 0.00 0.00 0.00 82 1013.6
20260507183029 11 294 0.0 1.6 0.00 0.00 0.00 78 1013.6
20260507181527 11 292 0.0 1.6 0.00 0.00 0.00 75 1013.5
20260507180026 12 302 0.0 1.6 0.00 0.00 0.00 72 1013.5
20260507174535 12 271 0.0 6.4 0.00 0.00 0.00 67 1013.4
20260507173048 13 114 0.0 4.8 0.00 0.00 0.00 64 1013.3
20260507171526 13 125 0.0 6.4 0.00 0.00 0.00 63 1013.3
20260507170025 13 92 1.6 9.7 0.00 0.00 0.00 63 1013.3
20260507164523 13 127 1.6 8.0 0.00 0.00 0.00 62 1013.3
20260507163026 13 119 1.6 6.4 0.00 0.00 0.00 62 1013.2
20260507161525 13 120 1.6 8.0 0.00 0.00 0.00 62 1013.2
20260507160022 13 140 1.6 12.9 0.00 0.00 0.00 60 1013.3
20260507154525 14 163 3.2 12.9 0.00 0.00 0.00 59 1013.3
20260507153020 15 103 3.2 12.9 0.00 0.00 0.00 57 1013.2
20260507151518 15 110 1.6 8.0 0.00 0.00 0.00 61 1013.3
20260507150032 13 107 1.6 9.7 0.00 0.00 0.00 62 1013.4
20260507144518 13 98 1.6 8.0 0.00 0.00 0.00 63 1013.6
20260507143014 13 101 3.2 9.7 0.00 0.00 0.00 61 1013.7
20260507141513 14 123 3.2 9.7 0.00 0.00 0.00 60 1013.9
20260507140014 14 113 1.6 9.7 0.00 0.00 0.00 59 1013.9
20260507134511 15 124 3.2 9.7 0.00 0.00 0.00 56 1014.0
20260507133011 15 136 4.8 11.3 0.00 0.00 0.00 57 1014.0
20260507131506 14 122 1.6 12.9 0.00 0.00 0.00 60 1014.2
20260507130005 13 209 3.2 16.1 0.00 0.00 0.00 59 1014.3
20260507124503 13 124 3.2 12.9 0.00 0.00 0.00 59 1014.4
20260507123002 13 116 3.2 11.3 0.00 0.00 0.00 60 1014.4
20260507121602 13 82 4.8 9.7 0.00 0.00 0.00 61 1014.5
20260507120056 13 86 1.6 11.3 0.00 0.00 0.00 63 1014.6
20260507114608 12 133 1.6 9.7 0.00 0.00 0.00 66 1014.6
20260507113050 12 113 3.2 9.7 0.00 0.00 0.00 67 1014.7
20260507111546 12 120 3.2 9.7 0.00 0.00 0.00 69 1014.7
20260507110045 11 99 4.8 9.7 0.00 0.00 0.00 73 1014.9
20260507104540 10 127 3.2 8.0 0.00 0.00 0.00 74 1015.1
20260507103043 10 140 1.6 9.7 0.00 0.00 0.00 77 1015.2
20260507101537 9 90 4.8 8.0 0.00 0.00 0.00 77 1015.2
20260507100035 8 116 3.2 9.7 0.00 0.00 0.00 79 1015.1
20260507094534 8 348 3.2 8.0 0.00 0.00 0.00 80 1015.1
20260507093027 8 135 1.6 8.0 0.00 0.00 0.00 81 1015.1
20260507091531 8 124 1.6 6.4 0.00 0.00 0.00 82 1015.1